Home > Weather > Jaipur > Past weeks

Flag for India Weather for the Past 2 Weeks in Jaipur, Rajasthan, India

Now
68 °F

Haze.


Feels Like: 68 °F
Forecast: 52 / 77 °F
Wind: 1 mph from North

Location: Jaipur / Sanganer

Current Time: Feb 12, 2016 at 8:50:18 PM

Latest Report: Feb 12, 2016 at 8:00 PM


Visibility: 2 mi

Pressure: 29.89 "Hg

Humidity: 40%

Dew point: 43 °F

Location of JaipurLocation

Historic Weather in Jaipur — Graph

°F

Jaipur Temperature Yesterday

Maximum temperature yesterday: 77 °F (at 2:00 PM)
Minimum temperature yesterday: 55 °F (at 7:00 AM)
Average temperature yesterday: 66 °F

High & Low Weather Summary for the Past Weeks

 TemperatureHumidityPressure
High82 °F (Jan 30, 4:00 PM)94% (Jan 30, 6:00 AM)30.18 "Hg (Jan 30, 6:00 AM)
Low48 °F (Feb 3, 6:00 AM)11% (Feb 11, 3:00 PM)29.80 "Hg (Feb 4, 9:00 PM)
Average66 °F43%30.02 "Hg
* Reported Jan 28 6:30 PM — Feb 12 7:00 PM, Jaipur, Weather by CustomWeather, © 2016

Note: Actual official high and low records may vary slightly from our data, if they occured in-between our weather recording intervals... More about our weather records

Advertising

Jaipur Weather History for the Previous 24 Hours

 ConditionsComfort  
Time TempWeatherWind HumidityBarometerVisibility
7:00 PM
Fri, Feb 12
73 °FHaze.2 mph31%29.86 "Hg2 mi
6:00 PM75 °FHaze.6 mph29%29.86 "Hg3 mi
5:00 PM79 °FHaze.6 mph24%29.86 "Hg3 mi
4:00 PM79 °FHaze.8 mph24%29.86 "Hg3 mi
3:00 PM77 °FScattered clouds.9 mph24%29.86 "Hg3 mi
2:00 PM77 °FScattered clouds.8 mph30%29.89 "Hg2 mi
1:00 PM75 °FHaze.9 mph36%29.92 "Hg2 mi
12:30 PM75 °FHaze.10 mph39%29.95 "Hg2 mi
10:00 AM66 °FHaze.10 mph46%29.98 "Hg2 mi
9:00 AM66 °FHaze.8 mph43%29.95 "Hg1 mi
8:00 AM61 °FHaze.No wind48%29.95 "Hg1 mi
7:00 AM61 °FHaze.3 mph52%29.95 "Hg1 mi
6:00 AM63 °FHaze.2 mph52%29.92 "Hg1 mi
5:00 AM64 °FHaze.6 mph49%29.92 "Hg2 mi
4:00 AM66 °FHaze.5 mph43%29.92 "Hg2 mi
12:00 AM63 °FHaze.3 mph25%29.95 "Hg2 mi
11:00 PM
Thu, Feb 11
63 °FHaze.2 mph27%29.95 "Hg1 mi
10:00 PM64 °FHaze.6 mph26%29.95 "Hg1 mi
9:00 PM64 °FHaze.5 mph26%29.95 "Hg1 mi
8:00 PM70 °FHaze.3 mph20%29.92 "Hg2 mi
Weather by CustomWeather, © 2016

See weather overviewHow to use our weather pages